Time,TemperatureF,DewpointF,PressureIn,WindDirection,WindDirectionDegrees,WindSpeedMPH,WindSpeedGustMPH,Humidity,HourlyPrecipIn,Conditions,Clouds,dailyrainin,SoftwareType,DateUTC
2013-05-31 00:01:00,69.4,66.7,30.14,NW,315,0.0,0.0,91,0.00,CLR,,0.00,WeatherDisplay:10.37,2013-05-31 04:01:00,
2013-05-31 00:06:00,69.4,66.7,30.14,NW,315,0.0,0.0,91,0.00,CLR,,0.00,WeatherDisplay:10.37,2013-05-31 04:06:00,
2013-05-31 00:11:00,69.1,66.3,30.14,NW,315,0.0,0.0,91,0.00,CLR,,0.00,WeatherDisplay:10.37,2013-05-31 04:11:00,
2013-05-31 00:16:00,69.1,66.3,30.14,NW,315,0.0,0.0,91,0.00,CLR,,0.00,WeatherDisplay:10.37,2013-05-31 04:16:00,
2013-05-31 00:21:00,69.1,66.3,30.14,NW,315,0.0,0.0,91,0.00,CLR,,0.00,WeatherDisplay:10.37,2013-05-31 04:21:00,
2013-05-31 00:26:00,68.9,66.5,30.14,NW,315,1.1,0.0,92,0.00,CLR,,0.00,WeatherDisplay:10.37,2013-05-31 04:26:00,
2013-05-31 00:31:00,68.7,66.6,30.14,NW,315,0.0,0.0,93,0.00,CLR,,0.00,WeatherDisplay:10.37,2013-05-31 04:31:00,
2013-05-31 00:36:00,68.7,66.6,30.14,NW,315,0.0,0.0,93,0.00,CLR,,0.00,WeatherDisplay:10.37,2013-05-31 04:36:00,
2013-05-31 00:41:00,68.5,66.4,30.14,NW,315,0.0,0.0,93,0.00,CLR,,0.00,WeatherDisplay:10.37,2013-05-31 04:41:00,
2013-05-31 00:46:00,68.4,66.3,30.14,NW,315,0.0,0.0,93,0.00,CLR,,0.00,WeatherDisplay:10.37,2013-05-31 04:46:00,
2013-05-31 00:51:00,68.4,66.3,30.14,NW,315,1.1,0.0,93,0.00,CLR,,0.00,WeatherDisplay:10.37,2013-05-31 04:51:00,
2013-05-31 00:56:00,68.2,66.1,30.14,NW,315,1.1,0.0,93,0.00,CLR,,0.00,WeatherDisplay:10.37,2013-05-31 04:56:00,
2013-05-31 01:01:00,68.0,65.9,30.14,NW,315,0.0,0.0,93,0.00,CLR,,0.00,WeatherDisplay:10.37,2013-05-31 05:01:00,
2013-05-31 01:06:00,68.0,65.9,30.15,NW,315,0.0,0.0,93,0.00,CLR,,0.00,WeatherDisplay:10.37,2013-05-31 05:06:00,
2013-05-31 01:11:00,67.8,66.0,30.15,North,0,0.0,0.0,94,0.00,CLR,,0.00,WeatherDisplay:10.37,2013-05-31 05:11:00,
2013-05-31 01:16:00,67.8,66.0,30.15,West,270,0.0,0.0,94,0.00,CLR,,0.00,WeatherDisplay:10.37,2013-05-31 05:16:00,
2013-05-31 01:21:00,67.6,66.2,30.14,NW,315,0.0,0.0,95,0.00,CLR,,0.00,WeatherDisplay:10.37,2013-05-31 05:21:00,
2013-05-31 01:26:00,67.5,66.0,30.15,NW,315,0.0,0.0,95,0.00,CLR,,0.00,WeatherDisplay:10.37,2013-05-31 05:26:00,
2013-05-31 01:31:00,67.3,65.8,30.14,NW,315,0.0,0.0,95,0.00,CLR,,0.00,WeatherDisplay:10.37,2013-05-31 05:31:00,
2013-05-31 01:36:00,67.3,65.8,30.14,NW,315,0.0,0.0,95,0.00,CLR,,0.00,WeatherDisplay:10.37,2013-05-31 05:36:00,
2013-05-31 01:41:00,67.1,65.6,30.14,NW,315,0.0,0.0,95,0.00,CLR,,0.00,WeatherDisplay:10.37,2013-05-31 05:41:00,
2013-05-31 01:46:00,67.1,65.6,30.14,NW,315,0.0,0.0,95,0.00,CLR,,0.00,WeatherDisplay:10.37,2013-05-31 05:46:00,
2013-05-31 01:51:00,66.9,65.4,30.14,NW,315,0.0,0.0,95,0.00,CLR,,0.00,WeatherDisplay:10.37,2013-05-31 05:51:00,
2013-05-31 01:56:00,66.7,65.3,30.14,NW,315,0.0,0.0,95,0.00,CLR,,0.00,WeatherDisplay:10.37,2013-05-31 05:56:00,
2013-05-31 02:01:00,66.6,65.1,30.14,West,270,0.0,0.0,95,0.00,CLR,,0.00,WeatherDisplay:10.37,2013-05-31 06:01:00,
2013-05-31 02:06:00,66.6,65.1,30.14,West,270,0.0,0.0,95,0.00,CLR,,0.00,WeatherDisplay:10.37,2013-05-31 06:06:00,
2013-05-31 02:11:00,66.4,65.2,30.14,NW,315,0.0,0.0,96,0.00,CLR,,0.00,WeatherDisplay:10.37,2013-05-31 06:11:00,
2013-05-31 02:16:00,66.4,65.2,30.13,NNE,22,2.3,2.3,96,0.00,CLR,,0.00,WeatherDisplay:10.37,2013-05-31 06:16:00,
2013-05-31 02:21:00,66.4,65.2,30.13,NE,45,2.3,2.7,96,0.00,CLR,,0.00,WeatherDisplay:10.37,2013-05-31 06:21:00,
2013-05-31 02:26:00,66.4,65.2,30.13,NE,45,0.0,0.0,96,0.00,CLR,,0.00,WeatherDisplay:10.37,2013-05-31 06:26:00,
2013-05-31 02:31:00,66.0,65.1,30.12,North,0,0.0,0.0,97,0.00,CLR,,0.00,WeatherDisplay:10.37,2013-05-31 06:31:00,
2013-05-31 02:36:00,66.0,65.1,30.12,North,0,4.6,4.6,97,0.00,CLR,,0.00,WeatherDisplay:10.37,2013-05-31 06:36:00,
2013-05-31 02:41:00,65.8,65.3,30.12,NW,315,2.3,0.0,98,0.00,CLR,,0.00,WeatherDisplay:10.37,2013-05-31 06:41:00,
2013-05-31 02:46:00,65.8,65.3,30.13,NW,315,4.6,0.0,98,0.00,CLR,,0.00,WeatherDisplay:10.37,2013-05-31 06:46:00,
2013-05-31 02:51:00,65.7,65.1,30.12,NW,315,2.3,0.0,98,0.00,CLR,,0.00,WeatherDisplay:10.37,2013-05-31 06:51:00,
2013-05-31 02:56:00,65.7,65.1,30.12,North,0,4.6,0.0,98,0.00,CLR,,0.00,WeatherDisplay:10.37,2013-05-31 06:56:00,
2013-05-31 03:01:00,65.7,65.1,30.12,NW,315,2.3,0.0,98,0.00,CLR,,0.00,WeatherDisplay:10.37,2013-05-31 07:01:00,
2013-05-31 03:06:00,65.7,65.1,30.12,NW,315,4.6,4.6,98,0.00,CLR,,0.00,WeatherDisplay:10.37,2013-05-31 07:06:00,
2013-05-31 03:11:00,65.7,65.1,30.13,West,270,0.0,0.0,98,0.00,CLR,,0.00,WeatherDisplay:10.37,2013-05-31 07:11:00,
2013-05-31 03:16:00,65.7,65.1,30.13,SW,225,0.0,0.0,98,0.00,CLR,,0.00,WeatherDisplay:10.37,2013-05-31 07:16:00,
2013-05-31 03:21:00,65.7,65.1,30.12,NW,315,1.1,0.0,98,0.00,CLR,,0.00,WeatherDisplay:10.37,2013-05-31 07:21:00,
2013-05-31 03:26:00,65.7,65.4,30.12,NW,315,0.0,0.0,99,0.00,CLR,,0.00,WeatherDisplay:10.37,2013-05-31 07:26:00,
2013-05-31 03:31:00,65.7,65.4,30.12,NW,315,0.0,0.0,99,0.00,CLR,,0.00,WeatherDisplay:10.37,2013-05-31 07:31:00,
2013-05-31 03:36:00,65.7,65.4,30.12,North,0,0.0,0.0,99,0.00,CLR,,0.00,WeatherDisplay:10.37,2013-05-31 07:36:00,
2013-05-31 03:41:00,65.7,65.4,30.11,North,0,2.7,0.0,99,0.00,CLR,,0.00,WeatherDisplay:10.37,2013-05-31 07:41:00,
2013-05-31 03:46:00,65.7,65.4,30.11,NW,315,0.0,0.0,99,0.00,CLR,,0.00,WeatherDisplay:10.37,2013-05-31 07:46:00,
2013-05-31 03:51:00,65.7,65.4,30.11,West,270,0.0,0.0,99,0.00,CLR,,0.00,WeatherDisplay:10.37,2013-05-31 07:51:00,
2013-05-31 03:56:00,65.7,65.4,30.11,NW,315,0.0,0.0,99,0.00,CLR,,0.00,WeatherDisplay:10.37,2013-05-31 07:56:00,
2013-05-31 04:01:00,65.7,65.4,30.11,NW,315,0.0,0.0,99,0.00,CLR,,0.00,WeatherDisplay:10.37,2013-05-31 08:01:00,
2013-05-31 04:06:00,65.7,65.4,30.11,NW,315,0.0,0.0,99,0.00,CLR,,0.00,WeatherDisplay:10.37,2013-05-31 08:06:00,
2013-05-31 04:11:00,65.5,65.2,30.11,NW,315,0.0,0.0,99,0.00,CLR,,0.00,WeatherDisplay:10.37,2013-05-31 08:11:00,
2013-05-31 04:16:00,65.5,65.2,30.12,NW,315,1.1,0.0,99,0.00,CLR,,0.00,WeatherDisplay:10.37,2013-05-31 08:16:00,
2013-05-31 04:21:00,65.5,65.2,30.12,SE,135,0.0,0.0,99,0.00,CLR,,0.00,WeatherDisplay:10.37,2013-05-31 08:21:00,
2013-05-31 04:26:00,65.7,65.4,30.12,North,0,0.0,0.0,99,0.00,CLR,,0.00,WeatherDisplay:10.37,2013-05-31 08:26:00,
2013-05-31 04:31:00,65.8,65.6,30.12,NW,315,1.1,0.0,99,0.00,CLR,,0.00,WeatherDisplay:10.37,2013-05-31 08:31:00,
2013-05-31 04:36:00,66.0,65.7,30.12,North,0,2.3,0.0,99,0.00,CLR,,0.00,WeatherDisplay:10.37,2013-05-31 08:36:00,
2013-05-31 04:41:00,66.0,65.7,30.12,West,270,0.0,0.0,99,0.00,CLR,,0.00,WeatherDisplay:10.37,2013-05-31 08:41:00,
2013-05-31 04:46:00,66.4,65.8,30.12,NW,315,0.0,0.0,98,0.00,CLR,,0.00,WeatherDisplay:10.37,2013-05-31 08:46:00,
2013-05-31 04:51:00,66.6,66.0,30.13,NW,315,2.3,0.0,98,0.00,CLR,,0.00,WeatherDisplay:10.37,2013-05-31 08:51:00,
2013-05-31 04:56:00,66.7,66.2,30.13,NE,45,0.0,0.0,98,0.00,CLR,,0.00,WeatherDisplay:10.37,2013-05-31 08:56:00,
2013-05-31 05:01:00,66.9,66.3,30.13,NE,45,0.0,0.0,98,0.00,CLR,,0.00,WeatherDisplay:10.37,2013-05-31 09:01:00,
2013-05-31 05:06:00,67.1,66.5,30.13,NW,315,0.0,0.0,98,0.00,CLR,,0.00,WeatherDisplay:10.37,2013-05-31 09:06:00,
2013-05-31 05:11:00,67.3,66.4,30.14,NW,315,0.0,0.0,97,0.00,CLR,,0.00,WeatherDisplay:10.37,2013-05-31 09:11:00,
2013-05-31 05:16:00,67.6,66.8,30.13,South,180,2.3,2.3,97,0.00,CLR,,0.00,WeatherDisplay:10.37,2013-05-31 09:16:00,
2013-05-31 05:21:00,68.5,67.4,30.14,South,180,4.4,4.4,96,0.00,CLR,,0.00,WeatherDisplay:10.37,2013-05-31 09:21:00,
2013-05-31 05:26:00,69.3,68.1,30.14,South,180,5.8,5.8,96,0.00,CLR,,0.00,WeatherDisplay:10.37,2013-05-31 09:26:00,
2013-05-31 05:31:00,70.2,68.0,30.14,SW,225,10.4,10.4,93,0.00,CLR,,0.00,WeatherDisplay:10.37,2013-05-31 09:31:00,
2013-05-31 05:36:00,70.5,68.1,30.14,SE,135,12.7,12.7,92,0.00,CLR,,0.00,WeatherDisplay:10.37,2013-05-31 09:36:00,
2013-05-31 05:41:00,70.9,67.8,30.14,SW,225,11.5,11.5,90,0.00,CLR,,0.00,WeatherDisplay:10.37,2013-05-31 09:41:00,
2013-05-31 05:46:00,71.1,67.7,30.14,South,180,4.6,4.6,89,0.00,CLR,,0.00,WeatherDisplay:10.37,2013-05-31 09:46:00,
2013-05-31 05:51:00,71.2,67.5,30.15,South,180,5.8,5.8,88,0.00,CLR,,0.00,WeatherDisplay:10.37,2013-05-31 09:51:00,
2013-05-31 05:56:00,71.2,67.5,30.15,SW,225,8.1,8.1,88,0.00,CLR,,0.00,WeatherDisplay:10.37,2013-05-31 09:56:00,
2013-05-31 06:01:00,71.2,67.5,30.15,South,180,6.9,6.9,88,0.00,CLR,,0.00,WeatherDisplay:10.37,2013-05-31 10:01:00,
2013-05-31 06:06:00,71.2,67.5,30.15,South,180,7.0,7.0,88,0.00,CLR,,0.00,WeatherDisplay:10.37,2013-05-31 10:06:00,
2013-05-31 06:11:00,71.1,67.3,30.15,South,180,6.9,6.9,88,0.00,CLR,,0.00,WeatherDisplay:10.37,2013-05-31 10:11:00,
2013-05-31 06:16:00,71.1,67.3,30.14,SW,225,6.9,6.9,88,0.00,CLR,,0.00,WeatherDisplay:10.37,2013-05-31 10:16:00,
2013-05-31 06:21:00,71.1,67.3,30.14,South,180,13.8,13.8,88,0.00,CLR,,0.00,WeatherDisplay:10.37,2013-05-31 10:21:00,
2013-05-31 06:26:00,71.1,67.0,30.14,South,180,10.4,10.4,87,0.00,CLR,,0.00,WeatherDisplay:10.37,2013-05-31 10:26:00,
2013-05-31 06:31:00,70.9,66.8,30.15,SW,225,4.6,4.6,87,0.00,CLR,,0.00,WeatherDisplay:10.37,2013-05-31 10:31:00,
2013-05-31 06:36:00,70.9,67.1,30.15,West,270,6.9,6.9,88,0.00,CLR,,0.00,WeatherDisplay:10.37,2013-05-31 10:36:00,
2013-05-31 06:41:00,70.7,67.0,30.15,South,180,6.9,6.9,88,0.00,CLR,,0.00,WeatherDisplay:10.37,2013-05-31 10:41:00,
2013-05-31 06:46:00,70.7,67.0,30.14,SE,135,11.5,11.5,88,0.00,CLR,,0.00,WeatherDisplay:10.37,2013-05-31 10:46:00,
2013-05-31 06:51:00,70.7,67.0,30.14,West,270,6.9,6.9,88,0.00,CLR,,0.00,WeatherDisplay:10.37,2013-05-31 10:51:00,
2013-05-31 06:56:00,70.7,67.0,30.15,SW,225,5.8,5.8,88,0.00,CLR,,0.00,WeatherDisplay:10.37,2013-05-31 10:56:00,
2013-05-31 07:01:00,70.7,67.3,30.15,SW,225,5.8,5.8,89,0.00,CLR,,0.00,WeatherDisplay:10.37,2013-05-31 11:01:00,
2013-05-31 07:06:00,70.5,67.1,30.15,South,180,6.9,6.9,89,0.00,CLR,,0.00,WeatherDisplay:10.37,2013-05-31 11:06:00,
2013-05-31 07:11:00,70.5,67.1,30.16,SW,225,8.1,8.1,89,0.00,CLR,,0.00,WeatherDisplay:10.37,2013-05-31 11:11:00,
2013-05-31 07:16:00,70.7,67.3,30.16,South,180,4.6,4.6,89,0.00,CLR,,0.00,WeatherDisplay:10.37,2013-05-31 11:16:00,
2013-05-31 07:21:00,70.7,67.3,30.16,SW,225,2.3,0.0,89,0.00,CLR,,0.00,WeatherDisplay:10.37,2013-05-31 11:21:00,
2013-05-31 07:26:00,70.7,67.3,30.17,SE,135,7.0,7.0,89,0.00,CLR,,0.00,WeatherDisplay:10.37,2013-05-31 11:26:00,
2013-05-31 07:31:00,70.9,67.5,30.16,NW,315,16.1,16.1,89,0.00,CLR,,0.00,WeatherDisplay:10.37,2013-05-31 11:31:00,
2013-05-31 07:36:00,71.1,67.7,30.17,South,180,6.9,6.9,89,0.00,CLR,,0.00,WeatherDisplay:10.37,2013-05-31 11:36:00,
2013-05-31 07:41:00,71.2,67.8,30.17,SW,225,10.4,10.4,89,0.00,CLR,,0.00,WeatherDisplay:10.37,2013-05-31 11:41:00,
2013-05-31 07:46:00,71.6,67.9,30.17,NW,315,2.3,4.4,88,0.00,CLR,,0.00,WeatherDisplay:10.37,2013-05-31 11:46:00,
2013-05-31 07:51:00,71.8,68.0,30.17,SW,225,5.8,5.8,88,0.00,CLR,,0.00,WeatherDisplay:10.37,2013-05-31 11:51:00,
2013-05-31 07:56:00,72.0,68.2,30.18,SSE,158,5.8,5.8,88,0.00,CLR,,0.00,WeatherDisplay:10.37,2013-05-31 11:56:00,
2013-05-31 08:01:00,72.0,68.2,30.18,South,180,5.8,5.8,88,0.00,CLR,,0.00,WeatherDisplay:10.37,2013-05-31 12:01:00,
2013-05-31 08:06:00,72.0,68.2,30.18,SW,225,4.6,4.6,88,0.00,CLR,,0.00,WeatherDisplay:10.37,2013-05-31 12:06:00,
2013-05-31 08:11:00,72.1,68.4,30.18,South,180,6.9,6.9,88,0.00,CLR,,0.00,WeatherDisplay:10.37,2013-05-31 12:11:00,
2013-05-31 08:16:00,72.1,68.4,30.18,SW,225,8.1,0.0,88,0.00,CLR,,0.00,WeatherDisplay:10.37,2013-05-31 12:16:00,
2013-05-31 08:21:00,72.5,68.7,30.18,SW,225,6.9,6.9,88,0.00,CLR,,0.00,WeatherDisplay:10.37,2013-05-31 12:21:00,
2013-05-31 08:26:00,72.9,69.1,30.18,SW,225,4.6,8.4,88,0.00,CLR,,0.00,WeatherDisplay:10.37,2013-05-31 12:26:00,
2013-05-31 08:31:00,73.0,68.9,30.18,South,180,13.8,13.8,87,0.00,CLR,,0.00,WeatherDisplay:10.37,2013-05-31 12:31:00,
2013-05-31 08:36:00,73.4,69.6,30.18,SW,225,13.8,13.8,88,0.00,CLR,,0.00,WeatherDisplay:10.37,2013-05-31 12:36:00,
2013-05-31 08:41:00,73.4,69.3,30.18,South,180,8.1,8.1,87,0.00,CLR,,0.00,WeatherDisplay:10.37,2013-05-31 12:41:00,
2013-05-31 08:46:00,73.2,68.8,30.18,South,180,16.1,16.1,86,0.00,CLR,,0.00,WeatherDisplay:10.37,2013-05-31 12:46:00,
2013-05-31 08:51:00,73.2,68.8,30.18,SSW,202,10.4,10.4,86,0.00,CLR,,0.00,WeatherDisplay:10.37,2013-05-31 12:51:00,
2013-05-31 08:56:00,73.0,68.6,30.18,South,180,12.8,12.8,86,0.00,CLR,,0.00,WeatherDisplay:10.37,2013-05-31 12:56:00,
2013-05-31 09:01:00,73.0,68.6,30.19,South,180,17.3,17.3,86,0.00,CLR,,0.00,WeatherDisplay:10.37,2013-05-31 13:01:00,
2013-05-31 09:06:00,73.0,68.6,30.18,South,180,18.4,18.4,86,0.00,CLR,,0.00,WeatherDisplay:10.37,2013-05-31 13:06:00,
2013-05-31 09:11:00,73.0,68.6,30.18,SW,225,13.8,13.8,86,0.00,CLR,,0.00,WeatherDisplay:10.37,2013-05-31 13:11:00,
2013-05-31 09:16:00,73.0,68.6,30.19,South,180,13.8,13.8,86,0.00,CLR,,0.00,WeatherDisplay:10.37,2013-05-31 13:16:00,
2013-05-31 09:21:00,73.0,68.6,30.18,West,270,10.4,10.4,86,0.00,CLR,,0.00,WeatherDisplay:10.37,2013-05-31 13:21:00,
2013-05-31 09:26:00,73.2,68.8,30.19,WSW,248,10.4,10.4,86,0.00,CLR,,0.00,WeatherDisplay:10.37,2013-05-31 13:26:00,
2013-05-31 09:31:00,73.2,68.8,30.18,SW,225,8.1,8.1,86,0.00,CLR,,0.00,WeatherDisplay:10.37,2013-05-31 13:31:00,
2013-05-31 09:36:00,73.2,68.8,30.18,South,180,8.1,8.1,86,0.00,CLR,,0.00,WeatherDisplay:10.37,2013-05-31 13:36:00,
2013-05-31 09:41:00,73.4,69.3,30.18,South,180,17.3,17.3,87,0.00,CLR,,0.00,WeatherDisplay:10.37,2013-05-31 13:41:00,
2013-05-31 09:46:00,73.6,69.5,30.18,SW,225,10.4,10.4,87,0.00,CLR,,0.00,WeatherDisplay:10.37,2013-05-31 13:46:00,
2013-05-31 09:51:00,73.6,69.1,30.18,SE,135,8.1,8.1,86,0.00,CLR,,0.00,WeatherDisplay:10.37,2013-05-31 13:51:00,
2013-05-31 09:56:00,73.6,69.1,30.19,SE,135,8.1,8.4,86,0.00,CLR,,0.00,WeatherDisplay:10.37,2013-05-31 13:56:00,
2013-05-31 10:01:00,73.8,69.3,30.19,West,270,12.7,12.7,86,0.00,CLR,,0.00,WeatherDisplay:10.37,2013-05-31 14:01:00,
2013-05-31 10:06:00,73.8,69.3,30.19,SE,135,11.5,11.5,86,0.00,CLR,,0.00,WeatherDisplay:10.37,2013-05-31 14:06:00,
2013-05-31 10:11:00,73.6,69.1,30.19,SW,225,13.8,13.8,86,0.00,CLR,,0.00,WeatherDisplay:10.37,2013-05-31 14:11:00,
2013-05-31 10:16:00,73.4,69.0,30.19,South,180,11.5,11.5,86,0.00,CLR,,0.00,WeatherDisplay:10.37,2013-05-31 14:16:00,
2013-05-31 10:21:00,73.4,69.0,30.19,South,180,10.4,10.4,86,0.00,CLR,,0.00,WeatherDisplay:10.37,2013-05-31 14:21:00,
2013-05-31 10:26:00,73.4,69.0,30.19,SE,135,10.4,10.4,86,0.00,CLR,,0.00,WeatherDisplay:10.37,2013-05-31 14:26:00,
2013-05-31 10:31:00,73.6,69.1,30.19,South,180,12.7,12.7,86,0.00,CLR,,0.00,WeatherDisplay:10.37,2013-05-31 14:31:00,
2013-05-31 10:36:00,73.9,69.5,30.19,East,90,11.5,11.5,86,0.00,CLR,,0.00,WeatherDisplay:10.37,2013-05-31 14:36:00,
2013-05-31 10:41:00,74.1,69.7,30.19,South,180,10.4,10.4,86,0.00,CLR,,0.00,WeatherDisplay:10.37,2013-05-31 14:41:00,
2013-05-31 10:46:00,75.0,70.5,30.19,South,180,11.5,11.5,86,0.00,CLR,,0.00,WeatherDisplay:10.37,2013-05-31 14:46:00,
2013-05-31 10:51:00,75.6,70.4,30.19,South,180,11.5,11.5,84,0.00,CLR,,0.00,WeatherDisplay:10.37,2013-05-31 14:51:00,
2013-05-31 10:56:00,75.7,70.2,30.19,South,180,8.1,8.1,83,0.00,CLR,,0.00,WeatherDisplay:10.37,2013-05-31 14:56:00,
2013-05-31 11:01:00,75.7,70.2,30.19,SW,225,5.8,5.8,83,0.00,CLR,,0.00,WeatherDisplay:10.37,2013-05-31 15:01:00,
2013-05-31 11:06:00,75.7,69.5,30.18,SW,225,12.7,12.7,81,0.00,CLR,,0.00,WeatherDisplay:10.37,2013-05-31 15:06:00,
2013-05-31 11:11:00,75.6,69.3,30.17,South,180,17.3,17.3,81,0.00,CLR,,0.00,WeatherDisplay:10.37,2013-05-31 15:11:00,
2013-05-31 11:16:00,76.3,70.0,30.18,SE,135,13.8,13.8,81,0.00,CLR,,0.00,WeatherDisplay:10.37,2013-05-31 15:16:00,
2013-05-31 11:21:00,77.2,70.2,30.17,SSE,158,12.7,12.7,79,0.00,CLR,,0.00,WeatherDisplay:10.37,2013-05-31 15:21:00,
2013-05-31 11:26:00,77.7,70.3,30.17,NE,45,6.9,6.9,78,0.00,CLR,,0.00,WeatherDisplay:10.37,2013-05-31 15:26:00,
2013-05-31 11:31:00,78.1,70.3,30.17,SW,225,8.1,8.1,77,0.00,CLR,,0.00,WeatherDisplay:10.37,2013-05-31 15:31:00,
2013-05-31 11:36:00,78.1,70.3,30.17,South,180,13.8,13.8,77,0.00,CLR,,0.00,WeatherDisplay:10.37,2013-05-31 15:36:00,
2013-05-31 11:41:00,78.1,69.9,30.17,West,270,17.3,17.3,76,0.00,CLR,,0.00,WeatherDisplay:10.37,2013-05-31 15:41:00,
2013-05-31 11:46:00,78.1,69.9,30.17,SW,225,10.4,10.4,76,0.00,CLR,,0.00,WeatherDisplay:10.37,2013-05-31 15:46:00,
2013-05-31 11:51:00,78.1,70.3,30.16,South,180,11.5,11.5,77,0.00,CLR,,0.00,WeatherDisplay:10.37,2013-05-31 15:51:00,
2013-05-31 11:56:00,78.8,70.2,30.16,SSW,202,13.8,13.8,75,0.00,CLR,,0.00,WeatherDisplay:10.37,2013-05-31 15:56:00,
2013-05-31 12:01:00,79.0,70.8,30.17,SE,135,6.9,6.9,76,0.00,CLR,,0.00,WeatherDisplay:10.37,2013-05-31 16:01:00,
2013-05-31 12:06:00,79.5,70.9,30.17,East,90,10.4,10.4,75,0.00,CLR,,0.00,WeatherDisplay:10.37,2013-05-31 16:06:00,
2013-05-31 12:11:00,79.3,70.3,30.17,SE,135,17.3,17.3,74,0.00,CLR,,0.00,WeatherDisplay:10.37,2013-05-31 16:11:00,
2013-05-31 12:16:00,79.5,70.5,30.16,SE,135,10.4,10.4,74,0.00,CLR,,0.00,WeatherDisplay:10.37,2013-05-31 16:16:00,
2013-05-31 12:21:00,80.1,71.4,30.16,SSW,202,13.8,13.8,75,0.00,CLR,,0.00,WeatherDisplay:10.37,2013-05-31 16:21:00,
2013-05-31 12:26:00,80.2,71.6,30.16,SE,135,2.3,4.4,75,0.00,CLR,,0.00,WeatherDisplay:10.37,2013-05-31 16:26:00,
2013-05-31 12:31:00,81.3,72.2,30.15,South,180,5.8,5.8,74,0.00,CLR,,0.00,WeatherDisplay:10.37,2013-05-31 16:31:00,
2013-05-31 12:36:00,81.7,71.4,30.15,South,180,12.7,12.7,71,0.00,CLR,,0.00,WeatherDisplay:10.37,2013-05-31 16:36:00,
2013-05-31 12:41:00,81.7,71.4,30.15,South,180,10.4,10.4,71,0.00,CLR,,0.00,WeatherDisplay:10.37,2013-05-31 16:41:00,
2013-05-31 12:46:00,81.5,70.8,30.14,South,180,13.8,13.8,70,0.00,CLR,,0.00,WeatherDisplay:10.37,2013-05-31 16:46:00,
2013-05-31 12:51:00,81.5,71.2,30.14,South,180,10.4,10.4,71,0.00,CLR,,0.00,WeatherDisplay:10.37,2013-05-31 16:51:00,
2013-05-31 12:56:00,81.7,71.4,30.14,SE,135,16.1,16.1,71,0.00,CLR,,0.00,WeatherDisplay:10.37,2013-05-31 16:56:00,
2013-05-31 13:01:00,81.9,71.5,30.14,SW,225,8.1,8.4,71,0.00,CLR,,0.00,WeatherDisplay:10.37,2013-05-31 17:01:00,
2013-05-31 13:06:00,82.0,71.7,30.14,SW,225,18.4,18.4,71,0.00,CLR,,0.00,WeatherDisplay:10.37,2013-05-31 17:06:00,
2013-05-31 13:11:00,82.0,71.3,30.14,SE,135,16.1,16.1,70,0.00,CLR,,0.00,WeatherDisplay:10.37,2013-05-31 17:11:00,
2013-05-31 13:16:00,81.1,70.0,30.13,SE,135,13.8,13.8,69,0.00,CLR,,0.00,WeatherDisplay:10.37,2013-05-31 17:16:00,
2013-05-31 13:21:00,82.0,71.7,30.13,SE,135,13.8,13.8,71,0.00,CLR,,0.00,WeatherDisplay:10.37,2013-05-31 17:21:00,
2013-05-31 13:26:00,82.6,70.9,30.13,South,180,12.7,12.7,68,0.00,CLR,,0.00,WeatherDisplay:10.37,2013-05-31 17:26:00,
2013-05-31 13:31:00,83.1,71.0,30.13,SE,135,19.6,19.6,67,0.00,CLR,,0.00,WeatherDisplay:10.37,2013-05-31 17:31:00,
2013-05-31 13:36:00,83.1,71.0,30.13,South,180,10.4,10.4,67,0.00,CLR,,0.00,WeatherDisplay:10.37,2013-05-31 17:36:00,
2013-05-31 13:41:00,82.4,70.3,30.13,WSW,248,11.5,11.5,67,0.00,CLR,,0.00,WeatherDisplay:10.37,2013-05-31 17:41:00,
2013-05-31 13:46:00,81.5,70.3,30.12,South,180,2.3,2.7,69,0.00,CLR,,0.00,WeatherDisplay:10.37,2013-05-31 17:46:00,
2013-05-31 13:51:00,81.7,70.9,30.12,South,180,15.8,15.8,70,0.00,CLR,,0.00,WeatherDisplay:10.37,2013-05-31 17:51:00,
2013-05-31 13:56:00,82.8,71.1,30.12,SW,225,13.8,13.8,68,0.00,CLR,,0.00,WeatherDisplay:10.37,2013-05-31 17:56:00,
2013-05-31 14:01:00,82.6,70.9,30.12,SE,135,6.9,6.9,68,0.00,CLR,,0.00,WeatherDisplay:10.37,2013-05-31 18:01:00,
2013-05-31 14:06:00,83.7,72.0,30.12,SW,225,10.4,12.8,68,0.00,CLR,,0.00,WeatherDisplay:10.37,2013-05-31 18:06:00,
2013-05-31 14:11:00,83.8,71.7,30.12,West,270,8.1,8.1,67,0.00,CLR,,0.00,WeatherDisplay:10.37,2013-05-31 18:11:00,
2013-05-31 14:16:00,83.3,71.2,30.12,South,180,10.4,10.4,67,0.00,CLR,,0.00,WeatherDisplay:10.37,2013-05-31 18:16:00,
2013-05-31 14:21:00,82.6,70.5,30.11,SW,225,13.8,13.8,67,0.00,CLR,,0.00,WeatherDisplay:10.37,2013-05-31 18:21:00,
2013-05-31 14:26:00,82.4,70.3,30.11,South,180,11.5,11.5,67,0.00,CLR,,0.00,WeatherDisplay:10.37,2013-05-31 18:26:00,
2013-05-31 14:31:00,83.1,71.0,30.11,SW,225,12.7,12.7,67,0.00,CLR,,0.00,WeatherDisplay:10.37,2013-05-31 18:31:00,
2013-05-31 14:36:00,84.2,71.6,30.11,SW,225,10.4,10.4,66,0.00,CLR,,0.00,WeatherDisplay:10.37,2013-05-31 18:36:00,
2013-05-31 14:41:00,84.4,70.9,30.11,South,180,18.4,18.4,64,0.00,CLR,,0.00,WeatherDisplay:10.37,2013-05-31 18:41:00,
2013-05-31 14:46:00,84.2,71.2,30.11,South,180,16.1,16.1,65,0.00,CLR,,0.00,WeatherDisplay:10.37,2013-05-31 18:46:00,
2013-05-31 14:51:00,83.7,70.6,30.11,SW,225,13.8,13.8,65,0.00,CLR,,0.00,WeatherDisplay:10.37,2013-05-31 18:51:00,
2013-05-31 14:56:00,83.5,70.9,30.11,WSW,248,6.9,6.9,66,0.00,CLR,,0.00,WeatherDisplay:10.37,2013-05-31 18:56:00,
2013-05-31 15:01:00,83.3,70.8,30.11,East,90,13.8,13.8,66,0.00,CLR,,0.00,WeatherDisplay:10.37,2013-05-31 19:01:00,
2013-05-31 15:06:00,83.3,71.2,30.10,South,180,11.5,11.5,67,0.00,CLR,,0.00,WeatherDisplay:10.37,2013-05-31 19:06:00,
2013-05-31 15:11:00,83.1,71.0,30.10,South,180,12.8,12.8,67,0.00,CLR,,0.00,WeatherDisplay:10.37,2013-05-31 19:11:00,
2013-05-31 15:16:00,83.8,71.7,30.10,SE,135,13.8,13.8,67,0.00,CLR,,0.00,WeatherDisplay:10.37,2013-05-31 19:16:00,
2013-05-31 15:21:00,85.5,72.3,30.09,SW,225,16.1,16.1,65,0.00,CLR,,0.00,WeatherDisplay:10.37,2013-05-31 19:21:00,
2013-05-31 15:26:00,85.5,71.9,30.10,SW,225,13.8,13.8,64,0.00,CLR,,0.00,WeatherDisplay:10.37,2013-05-31 19:26:00,
2013-05-31 15:31:00,84.7,71.2,30.09,South,180,12.7,12.7,64,0.00,CLR,,0.00,WeatherDisplay:10.37,2013-05-31 19:31:00,
2013-05-31 15:36:00,83.8,70.4,30.09,South,180,19.6,19.6,64,0.00,CLR,,0.00,WeatherDisplay:10.37,2013-05-31 19:36:00,
2013-05-31 15:41:00,83.3,70.8,30.09,SE,135,10.4,10.4,66,0.00,CLR,,0.00,WeatherDisplay:10.37,2013-05-31 19:41:00,
2013-05-31 15:46:00,83.5,70.9,30.09,SSE,158,18.4,18.4,66,0.00,CLR,,0.00,WeatherDisplay:10.37,2013-05-31 19:46:00,
2013-05-31 15:51:00,83.8,71.3,30.09,South,180,12.7,12.7,66,0.00,CLR,,0.00,WeatherDisplay:10.37,2013-05-31 19:51:00,
2013-05-31 15:56:00,83.8,70.8,30.09,SW,225,16.1,16.1,65,0.00,CLR,,0.00,WeatherDisplay:10.37,2013-05-31 19:56:00,
2013-05-31 16:01:00,83.8,71.3,30.09,South,180,11.5,17.1,66,0.00,CLR,,0.00,WeatherDisplay:10.37,2013-05-31 20:01:00,
2013-05-31 16:06:00,83.7,71.1,30.09,SSW,202,6.9,6.9,66,0.00,CLR,,0.00,WeatherDisplay:10.37,2013-05-31 20:06:00,
2013-05-31 16:11:00,83.7,70.6,30.08,SW,225,12.7,12.7,65,0.00,CLR,,0.00,WeatherDisplay:10.37,2013-05-31 20:11:00,
2013-05-31 16:16:00,83.8,70.8,30.08,South,180,11.5,11.5,65,0.00,CLR,,0.00,WeatherDisplay:10.37,2013-05-31 20:16:00,
2013-05-31 16:21:00,84.6,71.0,30.08,South,180,8.1,8.1,64,0.00,CLR,,0.00,WeatherDisplay:10.37,2013-05-31 20:21:00,
2013-05-31 16:26:00,84.9,71.4,30.08,South,180,6.9,6.9,64,0.00,CLR,,0.00,WeatherDisplay:10.37,2013-05-31 20:26:00,
2013-05-31 16:31:00,85.1,71.5,30.08,SE,135,12.7,12.7,64,0.00,CLR,,0.00,WeatherDisplay:10.37,2013-05-31 20:31:00,
2013-05-31 16:36:00,84.9,71.4,30.08,SSW,202,11.5,11.5,64,0.00,CLR,,0.00,WeatherDisplay:10.37,2013-05-31 20:36:00,
2013-05-31 16:41:00,84.6,71.0,30.08,South,180,10.4,10.4,64,0.00,CLR,,0.00,WeatherDisplay:10.37,2013-05-31 20:41:00,
2013-05-31 16:46:00,83.8,70.8,30.08,WNW,292,5.8,5.8,65,0.00,CLR,,0.00,WeatherDisplay:10.37,2013-05-31 20:46:00,
2013-05-31 16:51:00,84.0,70.5,30.07,SE,135,24.2,24.2,64,0.00,CLR,,0.00,WeatherDisplay:10.37,2013-05-31 20:51:00,
2013-05-31 16:56:00,83.5,70.0,30.08,South,180,17.3,17.3,64,0.00,CLR,,0.00,WeatherDisplay:10.37,2013-05-31 20:56:00,
2013-05-31 17:01:00,83.3,69.8,30.07,South,180,11.5,11.5,64,0.00,CLR,,0.00,WeatherDisplay:10.37,2013-05-31 21:01:00,
2013-05-31 17:06:00,83.7,70.6,30.07,South,180,8.1,8.1,65,0.00,CLR,,0.00,WeatherDisplay:10.37,2013-05-31 21:06:00,
2013-05-31 17:11:00,84.0,71.0,30.07,SE,135,6.9,8.4,65,0.00,CLR,,0.00,WeatherDisplay:10.37,2013-05-31 21:11:00,
2013-05-31 17:16:00,83.5,70.5,30.07,South,180,13.8,13.8,65,0.00,CLR,,0.00,WeatherDisplay:10.37,2013-05-31 21:16:00,
2013-05-31 17:21:00,82.8,69.8,30.07,South,180,6.9,7.0,65,0.00,CLR,,0.00,WeatherDisplay:10.37,2013-05-31 21:21:00,
2013-05-31 17:26:00,82.4,69.9,30.06,SE,135,16.1,16.1,66,0.00,CLR,,0.00,WeatherDisplay:10.37,2013-05-31 21:26:00,
2013-05-31 17:31:00,82.4,69.9,30.07,SE,135,5.8,5.8,66,0.00,CLR,,0.00,WeatherDisplay:10.37,2013-05-31 21:31:00,
2013-05-31 17:36:00,82.2,70.2,30.07,South,180,5.8,5.8,67,0.00,CLR,,0.00,WeatherDisplay:10.37,2013-05-31 21:36:00,
2013-05-31 17:41:00,82.2,70.2,30.07,SE,135,6.9,6.9,67,0.00,CLR,,0.00,WeatherDisplay:10.37,2013-05-31 21:41:00,
2013-05-31 17:46:00,82.2,70.6,30.07,South,180,5.8,5.8,68,0.00,CLR,,0.00,WeatherDisplay:10.37,2013-05-31 21:46:00,
2013-05-31 17:51:00,82.0,70.0,30.06,South,180,10.4,10.4,67,0.00,CLR,,0.00,WeatherDisplay:10.37,2013-05-31 21:51:00,
2013-05-31 17:56:00,81.9,69.8,30.07,NW,315,12.7,12.7,67,0.00,CLR,,0.00,WeatherDisplay:10.37,2013-05-31 21:56:00,
2013-05-31 18:01:00,81.9,69.8,30.07,SE,135,16.1,16.1,67,0.00,CLR,,0.00,WeatherDisplay:10.37,2013-05-31 22:01:00,
2013-05-31 18:06:00,81.9,69.8,30.07,South,180,5.8,5.8,67,0.00,CLR,,0.00,WeatherDisplay:10.37,2013-05-31 22:06:00,
2013-05-31 18:11:00,81.9,70.3,30.07,ESE,112,4.6,4.6,68,0.00,CLR,,0.00,WeatherDisplay:10.37,2013-05-31 22:11:00,
2013-05-31 18:16:00,81.7,70.5,30.07,South,180,4.6,4.6,69,0.00,CLR,,0.00,WeatherDisplay:10.37,2013-05-31 22:16:00,
2013-05-31 18:21:00,81.7,70.5,30.07,South,180,10.1,10.1,69,0.00,CLR,,0.00,WeatherDisplay:10.37,2013-05-31 22:21:00,
2013-05-31 18:26:00,81.7,70.5,30.07,South,180,4.6,4.6,69,0.00,CLR,,0.00,WeatherDisplay:10.37,2013-05-31 22:26:00,
2013-05-31 18:31:00,81.7,70.1,30.06,South,180,5.8,5.8,68,0.00,CLR,,0.00,WeatherDisplay:10.37,2013-05-31 22:31:00,
2013-05-31 18:36:00,81.5,70.8,30.06,South,180,4.4,0.0,70,0.00,CLR,,0.00,WeatherDisplay:10.37,2013-05-31 22:36:00,
2013-05-31 18:41:00,81.3,70.6,30.06,South,180,4.6,4.6,70,0.00,CLR,,0.00,WeatherDisplay:10.37,2013-05-31 22:41:00,
2013-05-31 18:46:00,81.3,70.6,30.06,NW,315,2.3,0.0,70,0.00,CLR,,0.00,WeatherDisplay:10.37,2013-05-31 22:46:00,
2013-05-31 18:51:00,81.0,70.7,30.06,North,0,0.0,0.0,71,0.00,CLR,,0.00,WeatherDisplay:10.37,2013-05-31 22:51:00,
2013-05-31 18:56:00,80.4,71.0,30.06,North,0,2.3,0.0,73,0.00,CLR,,0.00,WeatherDisplay:10.37,2013-05-31 22:56:00,
2013-05-31 19:01:00,80.1,71.0,30.06,North,0,0.0,0.0,74,0.00,CLR,,0.00,WeatherDisplay:10.37,2013-05-31 23:01:00,
2013-05-31 19:06:00,80.1,71.0,30.06,North,0,1.1,0.0,74,0.00,CLR,,0.00,WeatherDisplay:10.37,2013-05-31 23:06:00,
2013-05-31 19:11:00,79.7,71.1,30.06,NW,315,0.0,0.0,75,0.00,CLR,,0.00,WeatherDisplay:10.37,2013-05-31 23:11:00,
2013-05-31 19:16:00,79.7,71.1,30.06,North,0,0.0,0.0,75,0.00,CLR,,0.00,WeatherDisplay:10.37,2013-05-31 23:16:00,
2013-05-31 19:21:00,79.7,71.1,30.06,North,0,0.0,0.0,75,0.00,CLR,,0.00,WeatherDisplay:10.37,2013-05-31 23:21:00,
2013-05-31 19:26:00,79.7,71.5,30.06,North,0,0.0,0.0,76,0.00,CLR,,0.00,WeatherDisplay:10.37,2013-05-31 23:26:00,
2013-05-31 19:31:00,79.7,71.5,30.06,North,0,2.3,2.3,76,0.00,CLR,,0.00,WeatherDisplay:10.37,2013-05-31 23:31:00,
2013-05-31 19:36:00,79.5,71.3,30.06,North,0,0.0,0.0,76,0.00,CLR,,0.00,WeatherDisplay:10.37,2013-05-31 23:36:00,
2013-05-31 19:41:00,79.3,71.1,30.06,North,0,0.0,0.0,76,0.00,CLR,,0.00,WeatherDisplay:10.37,2013-05-31 23:41:00,
2013-05-31 19:46:00,79.3,71.1,30.06,North,0,0.0,0.0,76,0.00,CLR,,0.00,WeatherDisplay:10.37,2013-05-31 23:46:00,
2013-05-31 19:51:00,79.2,71.3,30.06,North,0,0.0,0.0,77,0.00,CLR,,0.00,WeatherDisplay:10.37,2013-05-31 23:51:00,
2013-05-31 19:56:00,79.0,71.2,30.06,North,0,0.0,0.0,77,0.00,CLR,,0.00,WeatherDisplay:10.37,2013-05-31 23:56:00,
2013-05-31 20:01:00,79.0,71.2,30.06,North,0,0.0,0.0,77,0.00,CLR,,0.00,WeatherDisplay:10.37,2013-06-01 00:01:00,
2013-05-31 20:06:00,78.8,71.0,30.06,North,0,0.0,0.0,77,0.00,CLR,,0.00,WeatherDisplay:10.37,2013-06-01 00:06:00,
2013-05-31 20:11:00,78.6,71.6,30.06,North,0,0.0,0.0,79,0.00,CLR,,0.00,WeatherDisplay:10.37,2013-06-01 00:11:00,
2013-05-31 20:16:00,78.4,71.0,30.06,NW,315,0.0,0.0,78,0.00,CLR,,0.00,WeatherDisplay:10.37,2013-06-01 00:16:00,
2013-05-31 20:21:00,78.3,71.2,30.05,West,270,0.0,0.0,79,0.00,CLR,,0.00,WeatherDisplay:10.37,2013-06-01 00:21:00,
2013-05-31 20:26:00,78.3,70.8,30.06,SW,225,4.6,4.6,78,0.00,CLR,,0.00,WeatherDisplay:10.37,2013-06-01 00:26:00,
2013-05-31 20:31:00,78.3,70.5,30.05,South,180,0.0,0.0,77,0.00,CLR,,0.00,WeatherDisplay:10.37,2013-06-01 00:31:00,
2013-05-31 20:36:00,78.3,70.5,30.05,SW,225,6.9,0.0,77,0.00,CLR,,0.00,WeatherDisplay:10.37,2013-06-01 00:36:00,
2013-05-31 20:41:00,78.3,70.1,30.05,SW,225,6.9,6.9,76,0.00,CLR,,0.00,WeatherDisplay:10.37,2013-06-01 00:41:00,
2013-05-31 20:46:00,78.3,70.1,30.05,North,0,0.0,0.0,76,0.00,CLR,,0.00,WeatherDisplay:10.37,2013-06-01 00:46:00,
2013-05-31 20:51:00,78.1,69.9,30.05,SE,135,2.3,0.0,76,0.00,CLR,,0.00,WeatherDisplay:10.37,2013-06-01 00:51:00,
2013-05-31 20:56:00,78.1,69.9,30.05,West,270,0.0,0.0,76,0.00,CLR,,0.00,WeatherDisplay:10.37,2013-06-01 00:56:00,
2013-05-31 21:01:00,78.1,69.9,30.05,South,180,5.8,5.8,76,0.00,CLR,,0.00,WeatherDisplay:10.37,2013-06-01 01:01:00,
2013-05-31 21:06:00,77.7,69.5,30.05,NW,315,0.0,0.0,76,0.00,CLR,,0.00,WeatherDisplay:10.37,2013-06-01 01:06:00,
2013-05-31 21:11:00,77.4,69.6,30.05,SW,225,0.0,0.0,77,0.00,CLR,,0.00,WeatherDisplay:10.37,2013-06-01 01:11:00,
2013-05-31 21:16:00,77.2,69.4,30.05,NW,315,0.0,0.0,77,0.00,CLR,,0.00,WeatherDisplay:10.37,2013-06-01 01:16:00,
2013-05-31 21:21:00,76.8,69.4,30.05,NW,315,0.0,0.0,78,0.00,CLR,,0.00,WeatherDisplay:10.37,2013-06-01 01:21:00,
2013-05-31 21:26:00,76.5,69.5,30.05,North,0,0.0,0.0,79,0.00,CLR,,0.00,WeatherDisplay:10.37,2013-06-01 01:26:00,
2013-05-31 21:31:00,75.9,69.3,30.05,NW,315,0.0,0.0,80,0.00,CLR,,0.00,WeatherDisplay:10.37,2013-06-01 01:31:00,
2013-05-31 21:36:00,75.7,69.5,30.05,NW,315,0.0,0.0,81,0.00,CLR,,0.00,WeatherDisplay:10.37,2013-06-01 01:36:00,
2013-05-31 21:41:00,75.2,69.3,30.05,NW,315,0.0,0.0,82,0.00,CLR,,0.00,WeatherDisplay:10.37,2013-06-01 01:41:00,
2013-05-31 21:46:00,74.8,69.3,30.05,NW,315,0.0,0.0,83,0.00,CLR,,0.00,WeatherDisplay:10.37,2013-06-01 01:46:00,
2013-05-31 21:51:00,74.5,69.3,30.05,NW,315,0.0,0.0,84,0.00,CLR,,0.00,WeatherDisplay:10.37,2013-06-01 01:51:00,
2013-05-31 21:56:00,74.3,69.5,30.05,NW,315,0.0,0.0,85,0.00,CLR,,0.00,WeatherDisplay:10.37,2013-06-01 01:56:00,
2013-05-31 22:01:00,73.9,69.1,30.05,NW,315,0.0,0.0,85,0.00,CLR,,0.00,WeatherDisplay:10.37,2013-06-01 02:01:00,
2013-05-31 22:06:00,73.8,69.0,30.05,NW,315,0.0,0.0,85,0.00,CLR,,0.00,WeatherDisplay:10.37,2013-06-01 02:06:00,
2013-05-31 22:11:00,73.6,68.8,30.05,SW,225,1.1,0.0,85,0.00,CLR,,0.00,WeatherDisplay:10.37,2013-06-01 02:11:00,
2013-05-31 22:16:00,73.6,69.1,30.06,West,270,0.0,0.0,86,0.00,CLR,,0.00,WeatherDisplay:10.37,2013-06-01 02:16:00,
2013-05-31 22:21:00,73.6,68.8,30.05,East,90,4.4,4.4,85,0.00,CLR,,0.00,WeatherDisplay:10.37,2013-06-01 02:21:00,
2013-05-31 22:26:00,73.9,69.1,30.05,NW,315,4.6,4.6,85,0.00,CLR,,0.00,WeatherDisplay:10.37,2013-06-01 02:26:00,
2013-05-31 22:31:00,74.3,69.1,30.05,South,180,2.3,2.3,84,0.00,CLR,,0.00,WeatherDisplay:10.37,2013-06-01 02:31:00,
2013-05-31 22:36:00,74.7,69.2,30.05,South,180,2.3,2.3,83,0.00,CLR,,0.00,WeatherDisplay:10.37,2013-06-01 02:36:00,
2013-05-31 22:41:00,74.8,69.0,30.05,South,180,2.3,2.3,82,0.00,CLR,,0.00,WeatherDisplay:10.37,2013-06-01 02:41:00,
2013-05-31 22:46:00,75.0,69.1,30.05,SW,225,4.6,0.0,82,0.00,CLR,,0.00,WeatherDisplay:10.37,2013-06-01 02:46:00,
2013-05-31 22:51:00,74.8,69.0,30.06,SW,225,1.1,0.0,82,0.00,CLR,,0.00,WeatherDisplay:10.37,2013-06-01 02:51:00,
2013-05-31 22:56:00,74.7,68.8,30.06,North,0,1.1,1.3,82,0.00,CLR,,0.00,WeatherDisplay:10.37,2013-06-01 02:56:00,
2013-05-31 23:01:00,74.5,69.0,30.06,NW,315,2.3,0.0,83,0.00,CLR,,0.00,WeatherDisplay:10.37,2013-06-01 03:01:00,
2013-05-31 23:06:00,74.1,69.3,30.06,NW,315,0.0,0.0,85,0.00,CLR,,0.00,WeatherDisplay:10.37,2013-06-01 03:06:00,
2013-05-31 23:11:00,73.8,69.0,30.05,West,270,2.3,0.0,85,0.00,CLR,,0.00,WeatherDisplay:10.37,2013-06-01 03:11:00,
2013-05-31 23:16:00,73.2,68.1,30.06,North,0,0.0,0.0,84,0.00,CLR,,0.00,WeatherDisplay:10.37,2013-06-01 03:16:00,
2013-05-31 23:21:00,73.0,67.9,30.05,West,270,0.0,0.0,84,0.00,CLR,,0.00,WeatherDisplay:10.37,2013-06-01 03:21:00,
2013-05-31 23:26:00,72.5,67.7,30.05,NW,315,0.0,0.0,85,0.00,CLR,,0.00,WeatherDisplay:10.37,2013-06-01 03:26:00,
2013-05-31 23:31:00,72.3,67.6,30.05,NW,315,0.0,0.0,85,0.00,CLR,,0.00,WeatherDisplay:10.37,2013-06-01 03:31:00,
2013-05-31 23:36:00,72.1,67.7,30.05,NW,315,0.0,0.0,86,0.00,CLR,,0.00,WeatherDisplay:10.37,2013-06-01 03:36:00,
2013-05-31 23:41:00,71.8,67.7,30.05,NW,315,0.0,0.0,87,0.00,CLR,,0.00,WeatherDisplay:10.37,2013-06-01 03:41:00,
2013-05-31 23:46:00,71.6,67.5,30.05,NW,315,0.0,0.0,87,0.00,CLR,,0.00,WeatherDisplay:10.37,2013-06-01 03:46:00,
2013-05-31 23:51:00,71.6,67.5,30.05,NW,315,0.0,0.0,87,0.00,CLR,,0.00,WeatherDisplay:10.37,2013-06-01 03:51:00,
2013-05-31 23:56:00,71.1,67.3,30.05,SW,225,2.3,0.0,88,0.00,CLR,,0.00,WeatherDisplay:10.37,2013-06-01 03:56:00,